Location: Gajan
(43.0218°N, 1.1244°E)
Time: 08:01:32
(UTC+00:00)

Cosmos 2219 - Pass Details

Date: 22 April 2021
Orbit: 834 x 859 km, 71.1° (Epoch: 07 May)

Event Time Altitude Azimuth Distance (km) Brightness Sun altitude
Rises 20:48:20 0° 215° (SW) 3,369 6.3 -20.2°
Reaches altitude 10° 20:50:48 10° 219° (SW) 2,438 5.6 -20.5°
Maximum altitude 20:56:18 58° 298° (WNW) 973 3.8 -21.2°
Drops below altitude 10° 21:01:51 10° 17° (NNE) 2,457 5.9 -22.0°
Sets 21:04:21 0° 22° (NNE) 3,398 6.6 -22.3°
